Location: Caltech
(34.1382°N, 118.1253°W)
Time: 02:50:27
(UTC-07:00)

Cosmos 2251 Rocket - Visible Passes

Search period start: 22 August 2014 00:00
Search period end: 01 September 2014 00:00
Orbit: 766 x 793 km, 74.0° (Epoch: 21 August)

Date Brightness Start Highest point End Pass type
(mag) Time Alt. Az. Time Alt. Az. Time Alt. Az.
22 Aug 4.1 20:20:44 10° SSE 20:25:35 36° E 20:30:26 10° NE visible
22 Aug 5.8 22:03:42 10° WSW 22:07:55 23° WNW 22:12:10 10° NNW visible
23 Aug 5.0 21:29:14 10° SW 21:34:10 37° WNW 21:39:07 10° N visible
24 Aug 4.1 20:55:12 10° SSW 21:00:30 61° WNW 21:05:48 10° N visible
25 Aug 6.6 05:47:55 10° NNE 05:51:13 17° ENE 05:54:28 10° E visible
25 Aug 3.5 20:21:33 10° SSW 20:26:54 81° ESE 20:32:15 10° NNE visible
25 Aug 6.8 22:08:23 10° WNW 22:09:49 11° WNW 22:11:15 10° NW visible
26 Aug 3.8 19:48:15 10° S 19:53:22 48° ESE 19:58:30 10° NNE visible
26 Aug 6.3 21:32:19 10° WSW 21:35:55 18° WNW 21:39:31 10° NNW visible
27 Aug 5.6 20:57:31 10° SW 21:02:06 29° WNW 21:06:42 10° N visible
28 Aug 5.5 05:48:12 10° N 05:52:58 34° ENE 05:57:41 10° SE visible
28 Aug 4.7 20:23:15 10° SW 20:28:23 46° WNW 20:33:31 10° N visible
29 Aug 6.3 05:15:13 10° NNE 05:19:11 21° ENE 05:23:08 10° ESE visible
29 Aug 3.8 19:49:24 10° SSW 19:54:44 77° WNW 20:00:05 10° NNE visible
30 Aug 6.8 04:42:51 10° NNE 04:45:19 13° ENE 04:47:46 10° E visible
30 Aug 6.8 21:01:15 10° W 21:03:55 14° WNW 21:06:36 10° NNW visible
31 Aug 3.8 05:49:15 10° NNW 05:54:31 76° ENE 05:59:43 10° SSE visible
31 Aug 6.3 20:25:58 10° WSW 20:30:03 22° WNW 20:34:10 10° NNW visible
